Clermont County, Batavia, OH

9:52 PM EST on December 07, 2019 (GMT -0500)
Clermont County, Batavia

Weather History for KI69 - September, 2019

Change the Weather History Date:

Saturday, September 28, 2019

  Actual Average (KLUK) Record (KLUK)
Temperature  
Mean Temperature 80 °F -  
Max Temperature 91 °F 73 °F 92 °F (1959)
Min Temperature 68 °F 51 °F 38 °F (1989)
Cooling Degree Days 14    
Growing Degree Days 30 (Base 50)    
Moisture  
Dew Point 65 °F    
Average Humidity 64    
Maximum Humidity 97    
Minimum Humidity 36    
Precipitation  
Precipitation 0.02 in - - ()
Sea Level Pressure  
Sea Level Pressure 30.05 in    
Wind  
Wind Speed 6 mph (SW)    
Max Wind Speed 13 mph    
Max Gust Speed 22 mph    
Visibility 10 miles    
Events      
Averages and records for this station are not official NWS values.
T = Trace of Precipitation, MM = Missing Value Source: NWS Daily Summary

Daily Weather History Graph

Daily Weather History Graph

Search for Another Location

Airport or City:

Astronomy

Sep. 28, 2019 Rise Set
Actual Time 7:29 AM EDT 7:24 PM EDT
Civil Twilight 7:03 AM EDT 7:51 PM EDT
Nautical Twilight 6:32 AM EDT 8:22 PM EDT
Astronomical Twilight 6:00 AM EDT 8:53 PM EDT
Moon 7:05 AM EDT (9/28) 7:49 PM EDT (9/28)
Length of Visible Light 12h 48m
Length of Day
11h 54m
Waning Crescent, 0% of the Moon is Illuminated
Sep 28
Waning Crescent
Sep 28
New
Oct 5
First Quarter
Oct 13
Full
Oct 21
Last Quarter

Hourly Weather History & Observations

Time (EDT) Temp. Heat Index Dew Point Humidity Pressure Visibility Wind Dir Wind Speed Gust Speed Precip Events Conditions
12:15 AM 75.6 °F - 63.5 °F 66% 29.92 in 10.0 mi South 4.6 mph - N/A   Clear
12:35 AM 76.1 °F - 63.5 °F 65% 29.92 in 10.0 mi SSW 5.8 mph - N/A   Clear
12:59 AM 76.1 °F - 63.3 °F 64% 29.92 in 10.0 mi SSW 4.6 mph - N/A   Clear
1:18 AM 75.7 °F - 63.1 °F 65% 29.93 in 10.0 mi SSW 5.8 mph - N/A   Clear
1:36 AM 76.1 °F - 63.5 °F 65% 29.93 in 10.0 mi SSW 6.9 mph - N/A   Clear
1:55 AM 76.1 °F - 63.5 °F 65% 29.93 in 10.0 mi SSW 8.1 mph - N/A   Clear
2:15 AM 76.1 °F - 63.5 °F 65% 29.94 in 10.0 mi SSW 6.9 mph - N/A   Clear
2:39 AM 76.1 °F - 63.9 °F 66% 29.96 in 10.0 mi SW 8.1 mph - N/A   Clear
2:58 AM 75.4 °F - 63.9 °F 67% 29.95 in 10.0 mi SW 5.8 mph - N/A   Clear
3:16 AM 75.2 °F - 64.0 °F 68% 29.96 in 10.0 mi SW 5.8 mph - N/A   Clear
3:35 AM 75.2 °F - 64.4 °F 69% 29.96 in 10.0 mi SSW 4.6 mph - N/A   Scattered Clouds
3:55 AM 74.5 °F - 64.4 °F 71% 29.96 in 10.0 mi SW 3.5 mph - N/A   Mostly Cloudy
4:19 AM 74.1 °F - 64.4 °F 72% 29.97 in 10.0 mi SSW 4.6 mph - N/A   Mostly Cloudy
4:37 AM 73.8 °F - 64.4 °F 72% 29.98 in 10.0 mi SSW 4.6 mph - N/A   Scattered Clouds
4:56 AM 73.8 °F - 64.4 °F 72% 29.98 in 10.0 mi SSW 5.8 mph - N/A   Scattered Clouds
5:15 AM 73.6 °F - 64.6 °F 73% 29.98 in 10.0 mi SSW 5.8 mph - N/A   Scattered Clouds
5:35 AM 72.9 °F - 64.8 °F 76% 29.98 in 10.0 mi SSW 3.5 mph - N/A   Clear
5:59 AM 73.0 °F - 65.1 °F 76% 29.98 in 10.0 mi SW 5.8 mph - N/A   Mostly Cloudy
6:17 AM 71.6 °F - 67.3 °F 86% 29.99 in 10.0 mi SW 6.9 mph - 0.02 in   Overcast
6:35 AM 70.9 °F - 67.3 °F 88% 30.00 in 10.0 mi SW 3.5 mph - 0.02 in   Overcast
6:55 AM 70.7 °F - 67.3 °F 89% 30.01 in 10.0 mi Calm Calm - 0.02 in   Overcast
7:15 AM 70.7 °F - 67.1 °F 88% 30.03 in 10.0 mi Calm Calm - N/A   Mostly Cloudy
7:57 AM 68.2 °F - 67.3 °F 97% 30.04 in 7.0 mi ESE 4.6 mph - N/A   Mostly Cloudy
8:15 AM 69.6 °F - 67.5 °F 93% 30.05 in 10.0 mi Calm Calm - N/A   Mostly Cloudy
8:35 AM 70.7 °F - 68.2 °F 92% 30.05 in 10.0 mi Calm Calm - N/A   Mostly Cloudy
8:55 AM 70.7 °F - 68.7 °F 93% 30.06 in 10.0 mi Calm Calm - N/A   Scattered Clouds
9:19 AM 73.2 °F - 68.9 °F 86% 30.06 in 10.0 mi Calm Calm - N/A   Clear
9:37 AM 75.0 °F - 68.7 °F 81% 30.07 in 10.0 mi SSW 4.6 mph - N/A   Clear
9:55 AM 76.6 °F - 69.1 °F 77% 30.07 in 10.0 mi SSW 4.6 mph - N/A   Clear
10:15 AM 77.9 °F - 69.3 °F 75% 30.08 in 10.0 mi SSW 3.5 mph - N/A   Clear
10:36 AM 79.2 °F - 69.4 °F 72% 30.09 in 10.0 mi SSW 6.9 mph - N/A   Clear
10:59 AM 79.9 °F - 69.6 °F 71% 30.09 in 10.0 mi South 3.5 mph - N/A   Clear
11:17 AM 81.9 °F 85.8 °F 70.2 °F 68% 30.09 in 10.0 mi Calm Calm - N/A   Clear
11:35 AM 82.9 °F 86.7 °F 69.4 °F 64% 30.08 in 10.0 mi SSW 8.1 mph - N/A   Clear
11:55 AM 83.8 °F 87.5 °F 68.9 °F 61% 30.08 in 10.0 mi SSW 9.2 mph - N/A   Clear
12:15 PM 84.0 °F 87.8 °F 69.1 °F 61% 30.08 in 10.0 mi SW 8.1 mph - N/A   Clear
12:39 PM 84.7 °F 88.2 °F 68.7 °F 58% 30.09 in 10.0 mi SSW 6.9 mph - N/A   Clear
12:57 PM 86.0 °F 89.7 °F 68.7 °F 56% 30.08 in 10.0 mi SSW 4.6 mph - N/A   Clear
1:15 PM 86.0 °F 88.8 °F 67.3 °F 53% 30.08 in 10.0 mi SW 9.2 mph 17.3 mph N/A   Clear
1:35 PM 88.3 °F 91.6 °F 67.5 °F 50% 30.08 in 10.0 mi South 12.7 mph 17.3 mph N/A   Clear
1:55 PM 88.3 °F 91.2 °F 66.7 °F 49% 30.07 in 10.0 mi WSW 12.7 mph 19.6 mph N/A   Scattered Clouds
2:18 PM 88.3 °F 90.5 °F 65.7 °F 47% 30.07 in 10.0 mi West 11.5 mph - N/A   Mostly Cloudy
2:37 PM 89.6 °F 91.8 °F 65.7 °F 45% 30.06 in 10.0 mi SW 12.7 mph 21.9 mph N/A   Scattered Clouds
2:55 PM 89.4 °F 91.2 °F 65.1 °F 44% 30.06 in 10.0 mi SSW 11.5 mph 19.6 mph N/A   Scattered Clouds
3:15 PM 88.7 °F 90.4 °F 65.1 °F 45% 30.05 in 10.0 mi SW 8.1 mph - N/A   Clear
3:35 PM 89.6 °F 91.1 °F 64.6 °F 43% 30.05 in 10.0 mi WSW 11.5 mph - N/A   Scattered Clouds
3:58 PM 90.1 °F 90.9 °F 62.6 °F 40% 30.05 in 10.0 mi SW 11.5 mph 17.3 mph N/A   Scattered Clouds
4:17 PM 89.8 °F 90.0 °F 61.5 °F 39% 30.05 in 10.0 mi WSW 11.5 mph 17.3 mph N/A   Clear
4:35 PM 91.2 °F 91.4 °F 61.9 °F 37% 30.05 in 10.0 mi West 11.5 mph 16.1 mph N/A   Clear
4:55 PM 90.7 °F 91.0 °F 61.7 °F 38% 30.05 in 10.0 mi SSW 5.8 mph - N/A   Scattered Clouds
5:15 PM 90.5 °F 90.1 °F 60.3 °F 36% 30.06 in 10.0 mi WSW 8.1 mph - N/A   Scattered Clouds
5:38 PM 89.4 °F 89.2 °F 60.4 °F 38% 30.06 in 10.0 mi WSW 6.9 mph - N/A   Mostly Cloudy
5:57 PM 89.1 °F 88.8 °F 60.6 °F 38% 30.07 in 10.0 mi SW 8.1 mph - N/A   Mostly Cloudy
6:15 PM 88.2 °F 87.8 °F 60.4 °F 39% 30.07 in 10.0 mi West 5.8 mph - N/A   Mostly Cloudy
6:35 PM 87.4 °F 87.4 °F 61.2 °F 41% 30.07 in 10.0 mi WSW 4.6 mph - N/A   Mostly Cloudy
6:55 PM 86.9 °F 86.7 °F 60.4 °F 41% 30.07 in 10.0 mi West 3.5 mph - N/A   Scattered Clouds
7:18 PM 85.6 °F 85.9 °F 61.2 °F 44% 30.08 in 10.0 mi West 4.6 mph - N/A   Overcast
7:36 PM 84.7 °F 84.8 °F 60.8 °F 44% 30.09 in 10.0 mi WNW 4.6 mph - N/A   Mostly Cloudy
7:55 PM 83.8 °F 84.1 °F 61.0 °F 46% 30.09 in 10.0 mi Calm Calm - N/A   Scattered Clouds
7:56 PM 83.8 °F 84.1 °F 61.0 °F 46% 30.09 in 10.0 mi Calm Calm - N/A   Scattered Clouds
8:15 PM 80.8 °F 81.9 °F 62.1 °F 53% 30.10 in 10.0 mi North 8.1 mph - N/A   Clear
8:35 PM 78.8 °F - 66.2 °F 65% 30.12 in 10.0 mi North 6.9 mph - N/A   Scattered Clouds
8:58 PM 78.1 °F - 66.9 °F 68% 30.12 in 10.0 mi NNE 6.9 mph - N/A   Clear
9:16 PM 77.2 °F - 66.9 °F 71% 30.13 in 10.0 mi NE 4.6 mph - N/A   Clear
9:35 PM 76.1 °F - 66.4 °F 72% 30.13 in 10.0 mi NNE 6.9 mph - N/A   Clear
9:55 PM 75.9 °F - 66.2 °F 72% 30.14 in 10.0 mi NE 4.6 mph - N/A   Clear
9:56 PM 75.7 °F - 66.2 °F 72% 30.14 in 10.0 mi NE 4.6 mph - N/A   Clear
10:15 PM 75.2 °F - 65.5 °F 72% 30.16 in 10.0 mi NE 3.5 mph - N/A   Clear
10:38 PM 74.5 °F - 65.3 °F 73% 30.16 in 10.0 mi ENE 4.6 mph - N/A   Clear
10:56 PM 74.5 °F - 64.9 °F 72% 30.17 in 10.0 mi ENE 4.6 mph - N/A   Clear
11:15 PM 73.4 °F - 64.8 °F 74% 30.17 in 10.0 mi NE 3.5 mph - N/A   Scattered Clouds
11:35 PM 73.2 °F - 64.6 °F 74% 30.18 in 10.0 mi NNE 3.5 mph - N/A   Scattered Clouds
11:59 PM 71.8 °F - 64.6 °F 78% 30.18 in 10.0 mi NE 4.6 mph - N/A   Clear